Regional Weather Roundup
Issued by NWS Goodland, KS

Home | Current Version | Previous Version | Graphics & Text | Print | Product List | Glossary On
Versions: 1 2 3 4 5 6 7 8 9 10 11 12 13 14 15 16 17 18 19 20 21 22 23 24 25 26 27 28 29 30 31 32 33 34 35 36 37 38 39 40 41 42 43 44 45 46 47 48 49 50
000
ASUS43 KGLD 300708
RWRGLD

GOODLAND FORECAST AREA HOURLY WEATHER ROUNDUP
NATIONAL WEATHER SERVICE GOODLAND KS
100 AM MDT WED JUL 30 2014

...OFFICIAL OBSERVATIONS...

CITY           SKY/WX    TMP DP  RH WIND       PRES   REMARKS
GOODLAND KS    LGT RAIN  64  63  96 CALM      30.17F
HILL CITY KS   CLOUDY    70  58  65 E10       30.13F
IMPERIAL NEB   HVY RAIN  63  60  90 E13       30.22S FOG
MCCOOK NEB     HVY RAIN  64  61  90 NE14      30.18S FOG
AKRON CO       CLOUDY    60  58  92 NE12      30.24R
BURLINGTON CO  CLOUDY    63  60  90 N5        30.19S
LIMON CO       CLOUDY    59  58  96 NE8       30.24F
$$

...UNOFFICIAL OBSERVATIONS...

CITY           SKY/WX    TMP DP  RH WIND       PRES   REMARKS
GOVE KS          N/A     69  32  25 MISG        N/A
LENORA KS        N/A     68  32  26 MISG        N/A
OBERLIN KS     CLOUDY    68  55  64 E10       30.14
ST FRANCIS KS  RAIN      63  59  88 NW8       30.18F
TRIBUNE KS     CLOUDY    61 N/A N/A N13       30.14
TRENTON NEB      N/A     67  32  27 E14         N/A
KIT CARSON CO    N/A     62  59  90 N12         N/A
WRAY CO          N/A    N/A N/A N/A NE13      30.21
YUMA CO          N/A     63  63 100 NE12        N/A
$$


USA.gov is the U.S. government's official web portal to all federal, state and local government web resources and services.